FW9322 Weather Reports


time (UTC)temp
F
wind
direction
speed
knots
gust
knots
rain 1hr
in
rain 24hr
in
rain mn
in
humidity
%
barometer
mb
20260505101547 55 0 0.0 0.0 0.00 0.00 0.00 76 1022.6
20260505100110 55 0 0.0 1.7 0.00 0.00 0.00 76 1022.7
20260505094546 55 288 0.0 0.0 0.00 0.00 0.00 74 1022.8
20260505093052 56 0 0.0 1.7 0.00 0.00 0.00 73 1022.7
20260505091559 56 0 0.0 0.0 0.00 0.00 0.00 73 1022.6
20260505090058 56 0 0.0 0.0 0.00 0.00 0.00 73 1022.5
20260505084539 56 0 0.0 0.0 0.00 0.00 0.00 72 1022.4
20260505083051 56 0 0.0 0.0 0.00 0.00 0.00 72 1022.4
20260505081545 57 0 0.0 1.7 0.00 0.00 0.00 72 1022.3
20260505080053 57 309 0.0 2.6 0.00 0.00 0.00 71 1022.2
20260505074542 57 297 0.0 0.9 0.00 0.00 0.00 70 1022.1
20260505073056 58 205 0.9 3.5 0.00 0.00 0.00 69 1021.9
20260505071546 58 0 0.0 4.3 0.00 0.00 0.00 68 1021.7
20260505070043 58 274 2.6 7.0 0.00 0.00 0.00 67 1021.6
20260505064549 58 0 0.9 4.3 0.00 0.04 0.00 68 1021.4
20260505063051 59 257 1.7 6.1 0.00 0.04 0.00 67 1021.3
20260505061548 59 288 1.7 7.8 0.00 0.04 0.00 67 1021.2
20260505060048 59 183 0.9 6.1 0.00 0.04 0.00 65 1021.1
20260505054614 60 0 0.9 5.2 0.00 0.05 0.00 65 1021.0
20260505053047 60 273 1.7 8.7 0.00 0.05 0.00 63 1020.7
20260505051549 60 202 0.9 7.0 0.00 0.05 0.00 65 1020.6
20260505041609 61 0 0.0 8.7 0.00 0.05 0.00 63 1020.0
20260505040100 61 227 2.6 7.0 0.00 0.05 0.00 62 1019.9
20260505034546 63 202 1.7 8.7 0.00 0.05 0.00 60 1019.9
20260505033045 64 261 3.5 7.8 0.00 0.05 0.00 61 1019.9
20260505031553 64 251 3.5 8.7 0.00 0.05 0.00 58 1020.0
20260505030058 63 202 4.3 8.7 0.00 0.05 0.00 63 1020.0
20260505024547 62 281 2.6 9.6 0.00 0.05 0.00 63 1020.4
20260505023048 62 280 3.5 9.6 0.00 0.05 0.00 64 1020.2
20260505021552 61 274 2.6 9.6 0.00 0.05 0.00 66 1020.5
20260505020053 60 279 1.7 7.8 0.00 0.05 0.00 68 1020.7
20260505014545 57 229 1.7 11.3 0.00 0.05 0.00 73 1020.8
20260505013049 57 263 2.6 8.7 0.00 0.05 0.00 70 1020.8
20260505011540 57 201 1.7 10.4 0.00 0.05 0.00 72 1021.0
20260505010103 57 175 0.9 9.6 0.00 0.05 0.00 73 1020.9
20260505004540 57 294 2.6 10.4 0.00 0.05 0.00 73 1020.7
20260505003050 58 215 1.7 10.4 0.00 0.05 0.00 72 1020.6
20260505001545 58 271 2.6 7.8 0.00 0.05 0.00 73 1020.4
20260505000051 59 304 1.7 8.7 0.00 0.05 0.00 70 1020.3
20260504234542 59 229 4.3 10.4 0.00 0.05 0.00 71 1020.0
20260504233052 58 295 1.7 9.6 0.00 0.05 0.00 74 1020.2
20260504231538 57 274 3.5 8.7 0.00 0.05 0.00 79 1019.9
20260504230104 55 328 4.3 11.3 0.00 0.05 0.00 83 1019.7
20260504224558 54 263 3.5 8.7 0.00 0.05 0.00 89 1019.6
20260504223040 53 250 1.7 7.0 0.00 0.05 0.00 90 1019.4
20260504221546 53 311 0.0 3.5 0.00 0.05 0.00 94 1019.2
20260504220056 52 0 0.0 1.7 0.00 0.05 0.00 94 1018.9
20260504214547 51 0 0.9 4.3 0.00 0.05 0.00 93 1018.7
20260504213046 52 204 0.9 7.8 0.00 0.05 0.00 93 1018.4
20260504211542 51 311 0.9 7.0 0.00 0.05 0.00 93 1018.2
20260504210054 51 0 0.9 5.2 0.00 0.05 0.00 93 1017.8
20260504204546 51 0 0.0 2.6 0.00 0.05 0.00 93 1017.8
20260504203047 51 0 0.0 0.9 0.00 0.05 0.00 93 1017.6
20260504201548 50 180 0.9 4.3 0.00 0.05 0.00 93 1017.3
20260504200052 50 0 0.0 0.0 0.00 0.05 0.00 92 1017.1
20260504194548 50 0 0.0 0.0 0.00 0.05 0.00 92 1016.8
20260504193044 50 0 0.0 0.9 0.00 0.05 0.00 92 1016.6
20260504191604 50 0 0.0 0.0 0.00 0.05 0.00 91 1016.4
20260504190047 50 0 0.0 0.0 0.00 0.05 0.00 90 1016.3
20260504184543 50 0 0.0 0.0 0.00 0.05 0.00 90 1016.1
20260504183050 50 0 0.0 0.0 0.00 0.05 0.00 89 1016.0
20260504181546 51 0 0.0 1.7 0.00 0.05 0.00 88 1015.8
20260504180047 51 0 0.0 2.6 0.00 0.05 0.00 89 1015.7
20260504174551 51 269 0.9 5.2 0.00 0.05 0.00 88 1015.6
20260504173042 51 0 0.9 5.2 0.00 0.05 0.00 89 1015.5
20260504171542 51 267 0.9 4.3 0.00 0.05 0.00 90 1015.6
20260504120109 53 0 0.0 1.7 0.00 0.05 0.05 87 1014.2